Weather Roundup
Issued by NWS Springfield, MO

Home | Current Version | Previous Version | Text Only | Print | Product List | Glossary On
Versions: 1 2 3 4 5 6 7 8 9 10 11 12 13 14 15 16 17 18 19 20 21 22 23 24 25 26 27 28 29 30 31 32 33 34 35 36 37 38 39 40 41 42 43 44 45 46 47 48 49 50
000
NZUS99 KSGF 061507
HRRSGF

HOURLY WEATHER
NATIONAL WEATHER SERVICE SPRINGFIELD MO
1000 AM CDT WED MAY 06 2015

......SGF CWA......

CITY           SKY/WX    TMP DP  RH WIND       PRES   REMARKS
SPRINGFIELD    RAIN      61  59  93 SE8       30.10S FOG
JOPLIN         LGT RAIN  65  61  87 S22G28    30.00F
WEST PLAINS    MOSUNNY   72  56  57 S12       30.14S
ROLLA          SUNNY     75  57  53 S20       30.09F
OSAGE BEACH    CLOUDY    73  57  56 S13       30.08S
BRANSON        PTSUNNY   66  57  72 NE10      30.12S

......SURROUNDING SGF CWA......

CITY           SKY/WX    TMP DP  RH WIND       PRES   REMARKS
CHANUTE        CLOUDY    64  59  83 S18G26    29.98R
PARSONS        CLOUDY    65  59  81 SE12G18   30.00R
COFFEYVILLE    CLOUDY    65  60  84 S15G21    29.98F
EMPORIA        LGT RAIN  59  57  93 S9        29.92R
GROVE OK       CLOUDY    64  64 100 E8        30.05F
ROGERS AR      LGT RAIN  62  60  93 SE10      30.08F
SILOAM SPRINGS CLOUDY    64  55  72 SE10G17   30.06F
HARRISON AR    CLOUDY    71  58  63 S10G22    30.11S
NEAR YELLVILLE PTSUNNY   73  61  64 S6        30.09F

......KANSAS AND MISSOURI......

CITY           SKY/WX    TMP DP  RH WIND       PRES   REMARKS
KANSAS CTY INT CLOUDY    68  60  75 S17       29.95R
DOWNTOWN KC    CLOUDY    69  59  70 S15       29.95R
COLUMBIA       SUNNY     73  58  59 S15       30.07S
SEDALIA        LGT RAIN  68  58  70 S17G28    30.03R
ST JOSEPH      PTSUNNY   69  60  73 S17G26    29.93R
ST LOUIS       PTSUNNY   79  55  43 SW14G20   30.13F
SPIRIT OF STL  SUNNY     77  56  48 S8G20     30.11F
KIRKSVILLE     MOSUNNY   75  59  57 S20       30.04F
WICHITA        CLOUDY    62  59  90 SE25G33   29.86S
TOPEKA         CLOUDY    67  59  75 S20G26    29.92R
OLATHE         CLOUDY    65  60  84 S18G26    29.97R

......TENNESSEE......

CITY           SKY/WX    TMP DP  RH WIND       PRES   REMARKS
MEMPHIS        MOSUNNY   78  58  49 SE7       30.17S
NASHVILLE      MOSUNNY   78  56  46 VRB6      30.22S

......ARKANSAS.......

CITY           SKY/WX    TMP DP  RH WIND       PRES   REMARKS
FAYETTEVILLE   CLOUDY    63  61  93 S7        30.06F
FT SMITH       PTSUNNY   70  60  70 E13       30.04F
LITTLE ROCK    MOSUNNY   77  54  44 S10       30.11S

......OKLAHOMA.......

CITY           SKY/WX    TMP DP  RH WIND       PRES   REMARKS
TULSA          LGT RAIN  63  62  97 SE12      29.98R
PONCA CITY     CLOUDY    64  62  93 SE16G24   29.90F
MCALESTER      CLOUDY    71  64  78 S10G21    30.00R
OKLAHOMA CITY  CLOUDY    70  65  84 S16G30    29.91S

......IOWA............

CITY           SKY/WX    TMP DP  RH WIND       PRES   REMARKS
DES MOINES     CLOUDY    75  57  53 SE21G29   29.96F
QUAD CITIES    MOSUNNY   68  60  75 SE6       30.12S

......ILLINOIS........

CITY           SKY/WX    TMP DP  RH WIND       PRES   REMARKS
QUINCY         SUNNY     76  55  48 S16       30.09F
CHICAGO        PTSUNNY   58  56  93 S6        30.17F FOG



USA.gov is the U.S. government's official web portal to all federal, state and local government web resources and services.